Weather History for CYTZ - November, 2012

Change the Weather History Date:

Saturday, November 24, 2012

  Actual Average Record
Temperature  
Mean Temperature 34 °F -  
Max Temperature 39 °F 37 °F 55 °F (2003)
Min Temperature 30 °F 26 °F 12 °F (2013)
Degree Days  
Heating Degree Days 30    
Moisture  
Dew Point 21 °F    
Average Humidity 59    
Maximum Humidity 81    
Minimum Humidity 28    
Precipitation  
Precipitation 0.00 in 0.10 in - ()
Sea Level Pressure  
Sea Level Pressure 29.86 in    
Wind  
Wind Speed 18 mph ()    
Max Wind Speed 30 mph    
Max Gust Speed 38 mph    
Visibility 9.1 miles    
Events Rain    
Averages and records for this station are not official NWS values.
T = Trace of Precipitation, MM = Missing Value Source: Averaged Metar Reports

Daily Weather History Graph

Daily Weather History Graph

Search for Another Location

Airport or City:

Trip Planner

Search our weather history database for the weather conditions in past years. The results will help you decide how hot, cold, wet, or windy it might be!

Date:

Astronomy

Nov. 24, 2012 Rise Set
Actual Time 7:23 AM EST 4:45 PM EST
Civil Twilight 6:51 AM EST 5:16 PM EST
Nautical Twilight 6:16 AM EST 5:52 PM EST
Astronomical Twilight 5:42 AM EST 6:26 PM EST
Moon 2:33 PM EST (11/24) 3:33 AM EST (11/24)
Length of Visible Light 10h 24m
Length of Day
9h 21m
Waxing Gibbous, 87% of the Moon is Illuminated
Nov 24
Waxing Gibbous
Nov 28
Full
Dec 6
Last Quarter
Dec 13
New
Dec 20
First Quarter

Hourly Weather History & Observations

Time (EST) Temp. Windchill Dew Point Humidity Pressure Visibility Wind Dir Wind Speed Gust Speed Precip Events Conditions
12:00 AM 35.6 °F 22.5 °F 26.6 °F 70% 29.72 in 9.0 mi WSW 29.9 mph 36.8 mph N/A   Partly Cloudy
1:00 AM 35 °F - 28 °F 66% 29.73 in 10 mi West 24.2 mph - -  
1:00 AM 33.8 °F 21.6 °F 28.4 °F 81% 29.73 in 9.0 mi West 23.0 mph 29.9 mph N/A   Scattered Clouds
2:00 AM 33.8 °F 21.6 °F 24.8 °F 70% 29.75 in 9.0 mi West 23.0 mph 38.0 mph N/A   Clear
3:00 AM 33.8 °F 22.5 °F 24.8 °F 70% 29.76 in 9.0 mi West 19.6 mph 31.1 mph N/A   Clear
4:00 AM 33.8 °F 22.8 °F 23.0 °F 65% 29.77 in 9.0 mi West 18.4 mph 31.1 mph N/A   Clear
5:00 AM 33.8 °F 21.9 °F 24.8 °F 70% 29.78 in 9.0 mi West 21.9 mph 28.8 mph N/A   Clear
5:01 AM 33.8 °F 21.9 °F 24.8 °F 70% 29.78 in 9.0 mi West 21.9 mph 28.8 mph N/A Rain Light Rain
5:14 AM 32.0 °F 18.6 °F 26.6 °F 80% 29.79 in 9.0 mi West 25.3 mph 32.2 mph N/A   Clear
6:00 AM 32.0 °F 21.2 °F 24.8 °F 75% 29.81 in 9.0 mi West 16.1 mph 23.0 mph N/A   Clear
7:00 AM 31 °F - 21 °F 56% 29.83 in 10 mi WNW 15.0 mph - -  
7:00 AM 32.0 °F 21.6 °F 21.2 °F 64% 29.83 in 9.0 mi WNW 15.0 mph 26.5 mph N/A   Clear
8:00 AM 32.0 °F 21.2 °F 21.2 °F 64% 29.86 in 9.0 mi WNW 16.1 mph 27.6 mph N/A   Scattered Clouds
9:00 AM 32.0 °F 20.1 °F 21.2 °F 64% 29.87 in 9.0 mi WNW 19.6 mph 28.8 mph N/A   Clear
10:00 AM 35.6 °F 25.2 °F 17.6 °F 48% 29.88 in 9.0 mi WNW 18.4 mph 33.4 mph N/A   Clear
11:00 AM 37.4 °F 27.8 °F 19.4 °F 48% 29.89 in 9.0 mi WNW 17.3 mph 33.4 mph N/A   Clear
12:00 PM 37.4 °F 27.5 °F 17.6 °F 45% 29.88 in 9.0 mi NW 18.4 mph 28.8 mph N/A   Partly Cloudy
1:00 PM 38 °F - 17 °F 28% 29.87 in 10 mi NW 18.4 mph - -  
1:00 PM 39.2 °F 29.3 °F 15.8 °F 39% 29.87 in 9.0 mi WNW 20.7 mph 27.6 mph N/A   Partly Cloudy
2:00 PM 39.2 °F 30.2 °F 14.0 °F 36% 29.88 in 9.0 mi NW 17.3 mph 29.9 mph N/A   Clear
3:00 PM 37.4 °F 26.4 °F 17.6 °F 45% 29.89 in 9.0 mi WNW 23.0 mph 32.2 mph N/A   Clear
4:00 PM 35.6 °F 24.0 °F 17.6 °F 48% 29.91 in 9.0 mi WNW 23.0 mph 29.9 mph N/A   Clear
5:00 PM 33.8 °F 21.3 °F 17.6 °F 52% 29.92 in 9.0 mi WNW 24.2 mph 32.2 mph N/A   Clear
6:00 PM 32.0 °F 22.1 °F 19.4 °F 60% 29.94 in 9.0 mi West 13.8 mph 23.0 mph N/A   Clear
7:00 PM 32 °F - 18 °F 43% 29.96 in 10 mi WNW 17.3 mph - -  
7:00 PM 32.0 °F 20.8 °F 17.6 °F 55% 29.96 in 9.0 mi WNW 17.3 mph 27.6 mph N/A   Clear
8:00 PM 33.8 °F 23.5 °F 19.4 °F 56% 29.96 in 9.0 mi WNW 16.1 mph 24.2 mph N/A   Overcast
8:21 PM 33.8 °F 23.5 °F 21.2 °F 60% 29.96 in 9.0 mi WNW 16.1 mph - N/A Rain Light Rain
8:30 PM 33.8 °F 24.8 °F 21.2 °F 60% 29.96 in 9.0 mi WNW 12.7 mph 18.4 mph N/A   Overcast
9:00 PM 32.0 °F 20.1 °F 19.4 °F 60% 29.95 in 9.0 mi WNW 19.6 mph - N/A   Mostly Cloudy
10:00 PM 30.2 °F 20.2 °F 19.4 °F 64% 29.95 in 9.0 mi West 12.7 mph - N/A   Partly Cloudy
11:00 PM 32.0 °F 22.5 °F 23.0 °F 69% 29.95 in 9.0 mi West 12.7 mph 19.6 mph N/A   Mostly Cloudy
11:48 PM 32.0 °F 23.0 °F 23.0 °F 69% 29.94 in 9.0 mi West 11.5 mph - N/A Rain Light Rain